Santander Airport, Spain

1:55 PM CEST en Septiembre 21, 2018 (GMT +0200)
Santander Airport

Tiempo Historia de LEXJ - Mayo, 2018

Change the Weather History Date:

Jueves, Mayo 17, 2018

  Actual Average Record
Temperature  
Temperatura media 56 ° F -  
Temperatura máxima 65 ° F 65 ° F 84 ° F (2006)
Temperatura mínima 47 ° F 53 ° F 44 ° F (2013)
Degree Days  
Grados día de calefacción 9    
Growing Degree Days 6 (Base 50)    
Moisture  
Punto de rocío 53 ° F    
Average Humidity 85    
Maximum Humidity 100    
Minimum Humidity 65    
Precipitación  
Precipitación 0.00 pul - - ()
Presión al nivel del mar  
Presión al nivel del mar 30.10 pul    
Viento  
Velocidad del viento 4 mph ()    
Velocidad máxima del viento 13 mph    
Max Gust Speed -    
Visibilidad 6.5 Millas    
Eventos      
Averages and records for this station are not official NWS values.
T = Trace of Precipitation, MM = Missing Value Source: Averaged Metar Reports

Daily Weather History Graph

Daily Weather History Graph

Search for Another Location

Airport or City:

Astronomía

May. 17, 2018 Salida Puesta
Hora real 6:49 AM CEST 9:34 PM CEST
Crepúsculo civil 6:15 AM CEST 10:08 PM CEST
Crepúsculo náutico 5:34 AM CEST 10:50 PM CEST
Crepúsculo astronómico 4:45 AM CEST 11:38 PM CEST
Luna 8:39 AM CEST (5/17) 11:54 PM CEST (5/17)
Horas de luz 15h 52m
Horas de luz
14h 45m
Creciente, 5% of the Moon is Illuminated
May 17
Creciente
May 22
Cuarto creciente
May 29
Luna llena
Jun 6
Cuarto menguante
Jun 13
Nueva

Hourly Weather History & Observations

Hora (CEST) Temp. Punto de rocío Humedad Presión Visibilidad Wind Dir Velocidad del viento Velocidad de ráfagas Precip Eventos Condiciones
12:00 AM 55.4 ° F 51.8 ° F 88% 30.15 pul 5.6 mi Variable 2.3 mph - N/A   Parcialmente nublado
1:00 AM 52 ° F 50 ° F 92% 30.16 pul - Sur 3.5 mph - -  
1:00 AM 53.6 ° F 53.6 ° F 100% 30.15 pul - Sur 3.5 mph - N/A   Despejado
1:30 AM 53.6 ° F 53.6 ° F 100% 30.12 pul - SSO 2.3 mph - N/A   Despejado
2:00 AM 53 ° F 52 ° F 95% 30.15 pul - SO 2.3 mph - -  
2:00 AM 53.6 ° F 53.6 ° F 100% 30.12 pul - OSO 3.5 mph - N/A   Despejado
2:30 AM 51.8 ° F 51.8 ° F 100% 30.12 pul - Variable 2.3 mph - N/A   Despejado
3:00 AM 52 ° F 52 ° F 99% 30.13 pul - SSO 2.3 mph - -  
3:00 AM 51.8 ° F 51.8 ° F 100% 30.12 pul - Variable 1.2 mph - N/A   Despejado
3:30 AM 51.8 ° F 51.8 ° F 100% 30.09 pul - Sin viento Sin viento - N/A   Despejado
4:00 AM 51 ° F 51 ° F 100% 30.12 pul - OSO 1.2 mph - -  
4:00 AM 51.8 ° F 51.8 ° F 100% 30.09 pul - Variable 1.2 mph - N/A   Despejado
4:30 AM 50.0 ° F 50.0 ° F 100% 30.09 pul - SE 3.5 mph - N/A   Despejado
5:00 AM 50.0 ° F 50.0 ° F 100% 30.09 pul 5.6 mi Sur 2.3 mph - N/A   Desconocido
5:30 AM 50.0 ° F 50.0 ° F 100% 30.09 pul 4.3 mi Sur 3.5 mph - N/A   Desconocido
6:00 AM 48 ° F 48 ° F 99% 30.11 pul - Sin viento Sin viento - -  
6:00 AM 50.0 ° F 50.0 ° F 100% 30.09 pul 4.3 mi Variable 1.2 mph - N/A   Desconocido
6:30 AM 50.0 ° F 50.0 ° F 100% 30.09 pul - Sur 2.3 mph - N/A   Despejado
7:00 AM 48.2 ° F 48.2 ° F 100% 30.09 pul 6.2 mi Sin viento Sin viento - N/A   Parcialmente nublado
7:30 AM 50.0 ° F 50.0 ° F 100% 30.09 pul 6.2 mi Variable 2.3 mph - N/A   Parcialmente nublado
8:00 AM 51 ° F 51 ° F 98% 30.11 pul 6 mi OSO 2.3 mph - -   Nubes dispersas
8:00 AM 50.0 ° F 50.0 ° F 100% 30.09 pul 6.2 mi OSO 3.5 mph - N/A   Parcialmente nublado
8:30 AM 53.6 ° F 53.6 ° F 100% 30.09 pul 6.2 mi Variable 2.3 mph - N/A   Parcialmente nublado
9:00 AM 55.4 ° F 51.8 ° F 88% 30.09 pul 6.2 mi Sur 3.5 mph - N/A   Parcialmente nublado
9:30 AM 57.2 ° F 55.4 ° F 94% 30.09 pul 6.2 mi Variable 2.3 mph - N/A   Parcialmente nublado
10:00 AM 61 ° F 55 ° F 73% 30.12 pul - Este 2.3 mph - -  
10:00 AM 59.0 ° F 53.6 ° F 82% 30.09 pul 6.2 mi Variable 2.3 mph - N/A   Parcialmente nublado
10:30 AM 59.0 ° F 51.8 ° F 77% 30.09 pul 6.2 mi Variable 2.3 mph - N/A   Nubes dispersas
11:00 AM 62 ° F 55 ° F 70% 30.11 pul 9 mi ENE 6.9 mph - -   Parcialmente nublado
11:00 AM 60.8 ° F 53.6 ° F 77% 30.09 pul 6.2 mi ENE 4.6 mph - N/A   Nubes dispersas
11:30 AM 60.8 ° F 53.6 ° F 77% 30.09 pul 6.2 mi ENE 3.5 mph - N/A   Nubes dispersas
12:00 PM 64 ° F 55 ° F 66% 30.11 pul - NE 6.9 mph - -  
12:00 PM 60.8 ° F 53.6 ° F 77% 30.09 pul 6.2 mi NNE 3.5 mph - N/A   Parcialmente nublado
12:30 PM 62.6 ° F 55.4 ° F 77% 30.09 pul 6.2 mi NE 5.8 mph - N/A   Parcialmente nublado
1:00 PM 64 ° F 56 ° F 67% 30.12 pul - Norte 9.2 mph - -  
1:00 PM 62.6 ° F 55.4 ° F 77% 30.09 pul 6.2 mi NE 6.9 mph - N/A   Parcialmente nublado
1:30 PM 62.6 ° F 55.4 ° F 77% 30.09 pul 6.2 mi NE 8.1 mph - N/A   Parcialmente nublado
2:00 PM 62.6 ° F 53.6 ° F 72% 30.09 pul 6.2 mi ENE 6.9 mph - N/A   Parcialmente nublado
2:30 PM 62.6 ° F 53.6 ° F 72% 30.09 pul 6.2 mi NE 4.6 mph - N/A   Parcialmente nublado
3:00 PM 62.6 ° F 53.6 ° F 72% 30.09 pul 6.2 mi NE 5.8 mph - N/A   Parcialmente nublado
3:30 PM 62.6 ° F 55.4 ° F 77% 30.09 pul - NE 8.1 mph - N/A   Despejado
4:00 PM 64 ° F 56 ° F 68% 30.10 pul - ENE 12.7 mph - -  
4:00 PM 62.6 ° F 53.6 ° F 72% 30.09 pul - NE 8.1 mph - N/A   Despejado
4:30 PM 62.6 ° F 53.6 ° F 72% 30.09 pul - NE 9.2 mph - N/A   Despejado
5:00 PM 64 ° F 55 ° F 65% 30.09 pul 12 mi ENE 11.5 mph - -   Despejado
5:00 PM 62.6 ° F 55.4 ° F 77% 30.06 pul - NE 6.9 mph - N/A   Despejado
5:30 PM 62.6 ° F 55.4 ° F 77% 30.06 pul - NE 9.2 mph - N/A   Despejado
6:00 PM 64 ° F 55 ° F 65% 30.09 pul - ENE 11.5 mph - -  
6:00 PM 62.6 ° F 55.4 ° F 77% 30.06 pul - NE 5.8 mph - N/A   Despejado
6:30 PM 60.8 ° F 53.6 ° F 77% 30.06 pul 6.2 mi NE 5.8 mph - N/A   Nubes dispersas
7:00 PM 63 ° F 55 ° F 67% 30.09 pul - ENE 10.4 mph - -  
7:00 PM 60.8 ° F 55.4 ° F 82% 30.06 pul 6.2 mi NE 6.9 mph - N/A   Nubes dispersas
7:30 PM 60.8 ° F 53.6 ° F 77% 30.06 pul 6.2 mi NE 6.9 mph - N/A   Nubes dispersas
8:00 PM 61 ° F 55 ° F 73% 30.09 pul 9 mi NE 8.1 mph - -   Parcialmente nublado
8:00 PM 60.8 ° F 53.6 ° F 77% 30.06 pul 6.2 mi NE 5.8 mph - N/A   Nubes dispersas
8:30 PM 59.0 ° F 53.6 ° F 82% 30.06 pul 6.2 mi NE 5.8 mph - N/A   Parcialmente nublado
9:00 PM 60 ° F 55 ° F 78% 30.09 pul - NE 6.9 mph - -  
9:00 PM 59.0 ° F 53.6 ° F 82% 30.06 pul 6.2 mi NE 5.8 mph - N/A   Parcialmente nublado
9:30 PM 59.0 ° F 55.4 ° F 88% 30.09 pul 6.2 mi NE 4.6 mph - N/A   Parcialmente nublado
10:00 PM 59 ° F 55 ° F 82% 30.12 pul - NE 5.8 mph - -  
10:00 PM 59.0 ° F 55.4 ° F 88% 30.09 pul 6.2 mi Variable 2.3 mph - N/A   Parcialmente nublado
10:30 PM 59.0 ° F 55.4 ° F 88% 30.09 pul 6.2 mi Variable 2.3 mph - N/A   Nubes dispersas
11:00 PM 59 ° F 55 ° F 84% 30.13 pul 12 mi ENE 5.8 mph - -   Parcialmente nublado
11:00 PM 59.0 ° F 55.4 ° F 88% 30.12 pul 6.2 mi Este 3.5 mph - N/A   Nubes dispersas
11:30 PM 59.0 ° F 55.4 ° F 88% 30.12 pul 5.0 mi Este 3.5 mph - N/A   Nublado